Find Kosmos-651

NORAD ID: 7291 Int'l Des: 1974-029 Owner: VMF Country: SU operational
LEOCIRCULAR

現在のビュー

3D地球を読み込み中...

About Kosmos-651

Kosmos-651 (NORAD 7291) is a satellite by VMF of SU. It operates in LEO, CIRCULAR orbit

次回通過

Passes for default location (London). Set your location on the main map for personalized predictions.

高度履歴

Loading altitude history...

軌道要素

1 07291U 74029A 26195.52742412 -.00000056 00000-0 27105-4 0 9992
2 07291 64.9695 241.8180 0027420 27.9358 332.3171 13.93095227654526
Epoch: Jul 14, 2026 • Age: 10 hours

現在のステータス

高度 941.8 km
遠地点 / 近地点 N/A
速度 7.37 km/s
衛星直下点 -13.14°S, 161.19°E
タイプ other

Most Searched